sat.trackr.live / text

‹ back to catalog

HAWK-3A

NORAD 48957 · 2021-059CG

PAYLOAD ACTIVE UNKNOWN

§ Identity

Operator
Country
US
Launch date
2021-06-30
Launch site
AFETR
Launch vehicle
Mass (kg)
RCS (m²)

Purposes: tech_demo

External: N2YO · Heavens-Above · Gunter

§ Orbital elements

Epoch: 2026-09-20T00:15:37.188576Z

Period
91.25 min
Inclination
97.6613°
Eccentricity
0.0003037
Mean motion
15.78016354 rev/d
Perigee alt
334.0 km
Apogee alt
338.1 km
Semi-major
6,714.2 km
B*
3.1442e-4
RAAN
112.2257°
Arg perigee
346.3492°
Mean anomaly
13.7691°
Rev number
29,276

§ Raw data

HAWK-3A1 48957U 21059CG  26263.01084709  .00053289  00000+0  31442-3 0  99912 48957  97.6613 112.2257 0003037 346.3492  13.7691 15.78016354292764

JSON: /api/v1/satellites/48957 · /tle

For live sub-satellite position, see the globe view (requires WebGL).

§ Visibility from observer

Set your observer location to see the next 7 days of passes ≥ 10°. The values pass through the URL so the page stays shareable.

No JS? Fill the form by hand. The geolocation button needs JavaScript.